Wind_Gust
17 21 18 19 20 22 23 22 26 25 31 28 27 26 30 18 19 20 20 14 21 13 16 16 21 20 20 20 15 19 24 20 25 25 20 19 21 22 17 23 25 25 25 26 27 26 25 20 18 19 21 22 22 22 23 23 23 23 25 25 23 22 21 19 18 18 17 16 16 16 16 15 16 16 16 16 16 17 16 16 17 18 18 19 19 19 19 20 19 18 19 20 19 19 19 18 18
22 19 18 17 21 23 26 20 32 25 28 28 27 24 27 22 15 19 20 19 17 27 19 18 18 20 18 29 16 18 29 23 23 27 21 21 23 20 21 24 25 26 25 26 27 26 25 25 18 19 21 22 22 23 23 24 22 23 25 25 24 22 21 19 18 17 16 16 15 16 15 15 16 16 16 16 16 16 16 17 18 18 18 19 19 19 19 19 18 19 19 19 19 19 18 18 17
22 22 22 20 23 25 25 25 33 25 27 28 27 27 18 24 23 15 16 14 18 16 16 19 18 19 25 19 24 21 22 21 23 23 22 21 23 21 23 23 24 24 25 27 27 25 24 23 19 19 21 22 23 23 24 25 24 23 24 25 24 22 21 19 18 17 16 15 15 15 15 16 16 16 16 17 16 16 17 18 19 19 18 18 18 18 17 17 18 18 19 19 18 18 18 18 17
21 21 24 20 28 24 27 28 29 28 28 26 25 20 22 16 20 16 10 15 16 15 19 21 21 24 19 19 22 18 24 20 19 19 24 26 21 25 26 25 23 24 24 26 26 25 23 24 20 19 22 23 22 23 24 25 25 23 24 24 24 22 20 19 17 16 16 15 15 15 16 16 16 17 16 16 17 16 16 18 18 18 18 17 17 17 16 17 18 18 19 18 19 18 18 18 17
21 21 21 23 24 27 29 29 29 25 28 25 24 17 19 21 21 15 17 20 16 18 22 23 24 19 25 23 26 21 19 21 18 18 31 20 23 25 26 24 24 24 25 25 25 25 26 25 19 20 20 23 23 22 23 24 23 23 23 23 23 22 21 19 18 16 16 16 15 16 16 16 16 16 16 16 17 16 16 16 17 18 18 17 16 15 15 17 17 18 18 18 18 18 17 16 16
21 23 20 22 30 28 29 26 25 28 25 23 24 23 17 17 16 20 23 19 19 17 21 23 27 24 21 20 24 21 21 18 27 18 32 23 25 29 27 24 24 24 24 25 24 24 29 25 23 20 20 23 23 23 21 22 22 23 22 21 21 21 20 19 17 17 17 16 16 16 17 17 16 16 16 16 17 17 17 16 16 15 16 16 15 15 16 17 18 18 18 18 18 17 16 16 15
26 22 24 23 30 28 29 29 29 27 25 19 24 21 17 18 20 19 22 25 24 23 20 24 20 22 24 28 28 25 24 24 23 23 22 28 26 27 26 26 24 24 25 25 23 25 31 26 23 21 22 24 23 23 22 21 22 22 22 21 20 20 19 18 18 17 17 16 16 17 17 17 17 16 16 16 17 17 17 17 16 14 14 14 14 15 16 17 18 18 18 18 17 16 16 15 14
20 27 23 27 27 29 29 29 30 27 26 22 17 20 18 19 17 19 20 23 24 25 22 26 26 24 18 29 25 21 17 18 21 23 28 29 27 26 26 26 26 25 26 24 23 27 29 25 22 21 21 23 23 22 22 21 21 22 22 22 21 20 20 19 18 17 17 16 16 16 17 17 17 17 16 16 16 16 16 17 16 16 14 13 14 15 16 17 17 18 18 17 17 16 16 15 14
23 24 23 29 27 28 27 28 27 24 25 23 19 18 18 25 24 22 22 25 24 23 25 22 22 26 22 22 24 22 21 18 22 25 25 27 27 28 29 28 29 29 26 25 26 30 28 24 23 20 19 20 21 21 21 20 21 21 22 22 21 21 19 18 17 17 16 15 15 15 17 17 17 17 17 16 16 16 16 16 16 16 16 15 15 15 16 16 17 17 17 17 16 16 15 14 14
26 23 25 29 24 29 27 26 25 22 24 21 23 20 15 14 17 16 19 22 22 23 23 21 23 27 22 29 29 22 22 19 25 27 28 28 26 27 27 28 27 29 28 28 28 30 29 28 26 22 20 19 19 19 19 19 20 20 20 20 19 19 19 18 18 17 16 15 16 16 16 17 17 17 17 16 16 16 17 16 17 17 16 16 16 16 16 16 16 16 16 16 16 15 15 14 14
30 26 26 30 26 27 27 23 23 19 20 21 18 17 18 18 16 22 20 22 21 24 20 19 23 27 26 34 42 36 35 24 28 29 29 31 28 27 25 28 27 25 26 27 28 31 30 28 29 24 21 19 18 19 18 18 17 18 18 17 17 18 19 18 17 17 17 16 16 17 17 17 17 18 16 16 16 17 17 17 17 17 16 16 16 17 17 16 16 16 16 16 15 15 14 14 13
28 27 26 28 27 25 22 25 20 20 19 14 18 17 17 17 15 20 21 23 23 22 29 36 34 32 37 36 36 30 37 33 32 34 31 32 28 27 27 25 25 30 26 26 29 29 30 29 29 25 22 20 18 17 18 17 17 16 16 16 16 16 17 17 17 17 17 16 15 16 17 18 17 17 17 17 16 16 17 17 17 18 17 16 16 17 17 16 16 16 15 15 15 15 14 14 13
29 24 27 28 27 26 23 25 21 19 20 20 16 21 22 14 17 18 20 17 33 32 38 35 33 32 36 31 33 28 38 35 34 39 33 31 31 32 24 24 27 31 31 27 26 29 28 29 30 29 24 21 20 20 18 18 17 17 16 16 16 16 16 16 16 17 17 16 16 16 17 17 17 17 17 16 16 16 16 16 17 17 17 15 16 16 16 16 16 15 15 15 15 14 14 14 14
29 27 26 30 23 27 27 24 22 20 22 21 22 15 11 17 13 17 21 22 33 28 32 38 38 30 34 32 29 28 27 24 28 31 36 31 29 26 28 26 31 29 27 26 25 27 27 27 27 27 28 26 26 23 20 21 20 19 18 18 17 17 16 16 16 17 17 16 16 16 16 17 17 17 17 17 16 16 16 16 17 17 17 16 16 16 15 15 15 15 15 15 15 15 15 14 14
29 24 29 29 28 23 22 27 20 19 28 25 20 15 13 17 17 14 18 19 29 32 26 41 47 33 31 36 30 30 30 29 24 22 27 26 25 25 29 32 34 29 27 25 24 25 25 25 26 26 24 26 26 23 24 24 21 21 21 19 19 20 19 17 18 18 17 17 17 16 16 17 18 18 18 17 17 17 16 17 16 16 16 16 15 16 15 15 15 15 15 15 15 15 15 15 14
27 26 29 29 28 24 23 24 20 23 27 16 20 11 15 14 12 18 24 23 29 31 41 39 39 31 35 31 37 33 29 31 29 28 30 25 26 27 29 34 31 25 27 27 25 26 27 24 23 24 24 22 21 20 21 22 20 19 20 21 21 21 21 20 20 19 18 17 17 17 17 19 19 21 19 21 17 17 18 15 16 16 16 16 15 15 14 15 15 15 15 15 16 15 16 15 15
23 26 28 28 28 23 21 24 20 29 24 17 19 16 24 18 17 17 19 28 32 31 34 34 33 34 33 40 34 35 32 27 22 24 21 22 23 26 29 28 29 27 25 27 28 25 28 25 24 22 19 20 21 18 17 19 22 19 18 18 19 19 20 21 20 19 18 17 17 16 17 19 19 20 23 20 19 21 15 17 16 16 16 15 14 14 13 14 15 15 16 15 16 17 15 15 15
23 30 27 26 25 24 22 26 22 19 30 19 18 13 15 17 17 22 22 30 31 32 31 28 30 33 33 30 33 31 32 30 25 26 23 20 20 25 27 25 27 25 19 20 23 20 22 23 24 26 23 24 23 22 19 16 17 17 18 19 20 19 18 17 21 22 18 22 16 21 19 18 18 18 19 17 21 22 22 18 16 16 15 15 13 14 13 12 14 16 16 16 17 17 20 22 17
26 25 27 27 23 24 23 23 18 21 19 18 16 13 16 21 16 24 27 26 26 31 28 26 27 25 22 27 26 23 22 23 23 24 26 26 25 24 21 26 23 21 20 19 19 16 16 16 19 26 28 26 20 20 19 13 15 14 15 18 17 14 18 20 20 21 21 21 22 23 17 17 17 17 17 17 15 13 21 18 18 16 15 15 14 14 13 13 14 16 17 16 17 20 25 17 18
25 25 26 28 24 28 26 19 18 20 20 16 16 13 12 19 18 32 32 29 29 26 22 22 24 23 23 28 27 26 23 23 23 28 33 34 32 28 22 22 24 24 24 21 20 21 19 18 17 17 16 15 16 15 14 13 15 16 15 13 13 17 17 18 18 19 20 18 22 19 20 18 16 15 16 17 15 19 21 17 18 18 17 16 16 14 13 12 14 15 15 16 14 15 18 15 16
23 29 27 25 26 28 22 16 16 13 13 17 19 16 14 19 21 25 25 34 30 29 25 20 21 20 20 24 24 22 23 25 29 32 32 33 31 30 30 23 21 23 21 20 19 19 17 16 17 16 13 12 13 14 12 11 10 10 16 17 14 14 16 17 18 20 24 21 17 21 22 22 20 17 16 17 17 17 18 20 23 22 22 21 19 18 19 21 18 21 21 21 16 17 21 18 16
20 26 25 28 29 31 29 18 17 15 12 19 16 20 16 28 28 26 33 29 26 20 19 19 17 18 21 21 21 21 22 24 22 22 23 25 24 24 25 25 21 18 19 21 20 19 16 17 17 16 16 14 14 12 14 11 11 9 9 9 14 20 20 16 14 19 24 19 18 24 24 24 25 21 16 16 16 17 16 19 18 18 18 19 21 17 18 19 19 19 18 18 18 17 19 24 20
26 21 24 25 19 24 20 18 19 12 18 14 18 17 19 25 29 29 30 29 25 21 21 21 20 18 17 17 19 22 23 22 22 23 24 24 24 21 22 22 21 20 19 19 17 19 16 12 14 14 14 13 13 13 13 12 11 8 8 9 8 9 15 16 21 17 19 19 20 23 22 23 25 27 24 23 24 23 20 16 16 17 17 18 18 17 16 17 16 18 16 20 19 23 21 20 18
24 25 19 18 15 23 21 17 19 13 16 19 18 14 18 26 26 29 32 28 24 23 20 23 21 21 18 19 20 23 23 23 24 26 22 23 22 23 23 23 21 18 17 18 21 16 16 15 14 12 14 14 15 14 11 12 10 9 9 8 7 8 7 9 14 17 19 12 15 19 17 24 24 21 22 25 27 23 22 19 17 16 16 16 17 18 18 16 15 16 17 20 22 23 21 19 18
23 31 20 16 19 22 17 19 16 16 16 17 17 21 22 24 27 27 31 27 26 26 27 27 26 24 21 21 21 21 24 24 24 28 23 22 21 23 25 25 23 18 20 18 18 18 17 15 14 15 13 14 13 14 14 14 14 11 11 10 8 8 7 8 9 10 15 13 13 15 16 22 26 22 24 25 25 23 20 17 18 18 20 16 20 19 19 15 16 20 19 20 20 20 22 22 17
22 28 17 17 22 25 14 15 16 16 17 17 22 20 17 34 35 32 30 27 29 29 27 24 23 22 22 22 22 21 21 22 23 27 26 20 24 28 26 23 20 21 22 19 16 18 16 14 14 14 14 14 13 13 13 15 19 18 10 10 9 8 9 10 10 10 11 10 14 15 16 19 23 23 21 20 22 24 23 16 16 19 21 20 22 19 21 18 14 22 19 20 16 14 14 18 14
27 25 16 20 18 17 16 18 17 15 17 16 23 20 21 17 19 22 28 30 33 29 24 23 25 20 21 22 24 23 25 26 25 25 24 22 25 27 28 29 28 24 23 22 21 21 19 19 20 18 14 14 12 14 13 16 16 18 15 12 12 10 9 9 9 11 12 12 14 14 13 17 20 23 23 22 17 16 17 17 13 14 18 18 23 21 18 17 17 15 22 24 21 17 23 19 16
19 21 13 18 17 17 20 19 17 19 19 18 23 24 21 20 25 24 29 31 32 29 24 22 22 22 22 22 24 22 23 24 28 25 25 22 26 26 26 28 26 23 22 22 22 21 21 21 24 23 23 20 19 21 15 17 19 17 13 14 13 12 10 11 12 12 10 10 11 12 13 14 19 19 20 23 18 17 16 14 15 15 14 14 18 18 18 17 18 18 18 20 13 12 17 14 14
16 17 22 19 19 23 18 24 20 22 20 17 18 22 22 22 21 27 30 28 28 26 26 25 22 22 22 21 23 23 23 25 24 24 23 25 25 26 27 25 24 22 21 21 23 22 20 18 21 23 25 25 25 25 26 22 20 16 12 11 12 12 11 12 14 12 13 12 13 13 14 17 18 14 14 15 16 16 17 16 16 16 16 15 14 14 15 14 15 14 15 14 16 15 14 15 16
18 20 22 22 22 21 19 16 16 22 20 19 19 25 19 19 22 31 33 32 33 26 26 24 24 24 24 23 24 25 23 23 25 24 23 24 24 25 26 23 20 20 21 20 20 22 19 18 17 17 17 19 18 22 26 25 19 12 12 10 10 11 13 14 13 11 12 13 13 14 18 21 19 19 15 11 12 15 15 16 16 17 16 14 14 13 15 15 16 15 16 17 14 17 16 15 15
22 16 26 24 25 24 17 15 16 20 21 14 15 24 18 17 16 28 29 32 32 25 24 22 23 24 24 24 25 27 24 25 24 23 22 22 23 25 24 22 21 21 21 20 20 19 18 18 16 16 16 15 14 13 13 12 11 10 10 10 9 10 10 13 11 11 13 13 15 16 20 20 21 17 17 15 15 15 15 16 18 19 17 15 16 16 16 16 16 17 17 18 18 17 18 17 17
22 25 24 21 23 26 19 12 16 23 24 16 17 21 18 16 16 15 30 34 30 25 27 24 23 23 23 23 24 25 25 23 22 22 21 21 21 22 23 22 21 21 21 20 19 19 19 17 17 16 16 15 14 12 11 11 10 10 11 8 12 11 13 13 13 14 15 16 18 17 17 17 17 17 18 18 17 17 17 17 19 17 16 17 16 16 16 18 17 17 16 17 17 20 20 19 18
25 22 20 22 25 26 20 16 15 19 16 12 18 19 19 17 16 14 19 31 31 29 26 27 24 28 22 22 21 22 23 23 25 24 22 20 21 21 21 22 23 21 21 21 21 19 19 18 17 18 17 16 14 13 11 9 10 10 9 10 10 11 13 14 14 14 15 16 17 17 17 18 19 19 20 20 20 21 21 18 19 16 17 17 15 15 18 18 17 18 17 18 17 19 21 20 18
20 21 23 18 26 24 24 17 16 14 17 20 18 21 18 20 18 17 12 15 34 28 27 25 30 27 26 22 22 22 22 23 24 23 21 20 21 20 20 20 21 20 20 21 20 21 20 18 17 18 18 17 15 13 12 10 9 9 9 10 9 10 11 13 14 14 15 15 16 17 17 19 19 18 19 21 22 22 21 21 20 18 18 18 18 18 19 18 18 17 17 17 19 20 20 19 18
20 20 19 24 25 20 22 24 22 17 16 22 18 22 23 20 19 17 16 16 17 21 26 25 28 21 22 21 22 22 23 22 22 21 19 19 19 19 20 20 20 20 20 20 20 20 20 19 19 17 18 18 17 15 12 12 12 11 10 10 10 11 12 12 12 14 13 13 14 14 16 17 19 20 20 21 22 22 22 23 21 18 21 21 20 20 20 19 18 18 19 19 17 21 20 19 19
26 25 25 22 24 26 30 19 19 19 20 23 20 22 24 22 20 19 17 17 18 20 19 20 24 23 18 19 20 20 21 21 20 19 18 19 20 20 20 20 20 20 20 21 20 20 20 19 19 19 18 18 16 16 16 16 15 15 15 14 13 12 13 13 12 14 13 15 15 15 16 17 17 18 21 22 21 21 23 23 21 19 24 22 23 23 21 21 19 19 20 22 21 21 22 21 19
28 25 22 23 25 22 18 17 18 22 22 20 18 23 22 22 21 20 19 18 18 18 18 17 17 17 17 18 19 20 19 20 21 22 20 19 18 20 19 20 21 19 20 21 20 20 20 21 20 20 18 18 18 19 18 18 18 17 15 15 15 14 15 13 14 13 14 14 15 15 15 16 16 17 19 22 22 22 24 23 23 21 23 23 23 23 21 22 20 20 21 20 21 22 22 21 17
29 25 23 23 22 21 18 18 15 23 25 19 19 22 22 22 21 20 20 19 19 18 17 16 16 16 16 16 17 18 18 18 19 19 20 19 21 19 19 19 19 21 21 20 21 20 19 19 19 20 18 19 17 17 18 16 17 17 18 18 18 19 18 17 16 15 15 14 14 15 15 16 16 16 17 19 23 23 24 25 23 24 22 23 23 23 23 22 21 23 21 22 23 24 23 22 21
29 27 25 24 26 21 21 19 17 19 18 22 21 22 21 21 20 19 20 20 17 18 15 15 15 16 16 18 17 16 17 17 17 19 18 19 19 20 20 19 19 19 19 20 19 20 19 20 20 20 19 19 17 17 19 19 17 17 18 19 20 20 17 17 17 16 16 17 17 18 18 17 17 18 18 19 21 22 23 24 23 24 24 24 24 25 24 24 24 24 23 23 22 23 23 21 20
25 28 27 21 22 24 22 18 19 18 23 23 21 20 21 19 20 20 20 20 17 15 16 13 13 13 14 17 19 18 18 19 17 17 18 18 19 20 21 21 20 19 20 19 20 20 19 20 20 20 19 18 17 17 18 18 18 18 17 17 18 19 20 19 18 18 17 18 19 18 17 17 18 19 20 20 21 22 22 24 24 23 23 23 24 24 24 25 24 24 24 24 22 22 28 26 23
19 19 18 21 24 22 18 22 20 17 21 19 20 22 22 21 23 23 20 19 19 16 15 15 14 14 14 14 15 16 17 17 19 18 17 17 19 20 20 19 18 19 19 20 19 20 20 20 20 21 20 19 18 18 19 19 19 18 18 17 17 17 17 18 18 18 16 15 16 15 16 16 17 18 19 20 21 21 21 22 23 24 21 24 25 25 26 28 26 25 25 24 24 25 25 24 23
13 11 15 17 16 18 22 21 20 22 20 22 22 22 23 23 23 25 24 23 20 19 17 18 16 16 16 15 15 15 14 14 15 16 17 17 17 17 18 18 18 18 18 17 17 18 18 19 19 20 19 18 19 17 19 20 19 20 20 20 19 18 19 17 17 16 16 15 16 15 15 17 17 17 18 19 20 21 21 22 21 22 22 24 25 27 28 27 27 28 27 26 26 25 25 24 25
14 17 15 15 15 17 22 22 22 18 18 22 22 22 18 25 26 25 27 25 23 21 20 19 19 18 17 16 17 16 16 16 15 16 16 16 16 16 17 19 18 18 17 16 16 17 18 18 18 19 20 19 19 18 20 20 19 19 18 19 20 20 21 21 19 18 18 18 18 16 16 15 17 18 18 19 19 20 22 23 23 24 24 23 24 26 27 27 29 29 27 27 28 27 25 27 26
23 18 16 16 15 17 19 19 20 17 15 19 24 26 23 22 27 24 24 23 23 23 22 21 20 18 17 15 15 14 16 14 16 15 15 15 14 16 17 18 17 17 15 16 15 16 17 18 19 19 20 20 18 20 21 21 22 21 21 20 20 20 19 21 21 21 19 19 19 17 17 16 17 17 18 19 20 21 21 24 24 24 25 25 22 23 24 24 26 27 25 25 27 25 25 28 26
21 15 16 15 15 16 17 19 22 21 17 22 24 19 28 25 23 26 24 25 26 25 23 23 20 19 18 17 17 15 14 14 14 16 14 14 14 15 15 16 16 15 16 15 15 16 17 17 18 19 20 19 18 20 22 21 21 21 21 20 20 20 20 21 21 21 20 18 18 18 18 18 18 17 18 18 19 20 21 23 23 23 22 23 19 21 20 20 20 24 26 26 23 23 24 23 26
19 16 14 13 14 16 18 22 23 22 23 21 21 21 28 23 18 29 25 24 26 27 24 23 22 21 20 19 17 16 15 14 16 15 15 13 12 12 13 13 14 14 14 14 14 15 17 17 18 19 19 19 20 21 21 20 20 20 21 19 20 21 20 21 20 21 20 18 19 18 17 17 17 17 17 18 19 20 21 22 24 23 22 21 18 21 19 20 24 26 27 23 21 23 24 27 26
19 17 17 17 17 18 17 20 21 22 26 28 25 26 26 24 21 24 24 28 25 23 24 25 26 21 20 18 18 18 17 16 17 15 14 13 12 11 12 13 14 14 14 14 14 15 17 18 18 19 19 19 19 20 20 20 20 20 20 19 20 21 21 21 21 20 20 19 19 18 17 17 17 18 16 16 17 19 19 20 21 22 20 19 19 22 22 21 20 22 21 19 20 21 25 22 24
20 21 17 16 16 18 17 19 18 22 22 20 26 25 24 24 19 26 26 22 23 24 22 22 23 23 22 19 20 18 17 15 17 16 15 12 11 10 11 13 13 14 14 15 15 16 17 18 19 19 19 19 19 21 20 20 21 22 20 20 20 20 21 22 22 22 20 20 19 18 18 17 16 16 15 17 16 20 19 20 18 20 21 20 21 22 21 20 21 20 20 21 21 19 22 24 22
19 18 19 20 21 21 20 19 18 21 20 19 20 23 21 26 25 20 26 21 25 28 27 27 26 23 21 21 19 18 17 15 18 16 13 11 10 9 10 11 12 13 14 14 16 16 17 17 19 19 20 19 20 20 19 19 20 20 20 21 19 21 21 20 20 21 19 20 19 19 19 18 17 17 17 17 16 17 17 18 19 20 20 22 22 23 23 21 22 22 21 22 21 20 20 19 22
19 20 19 20 15 14 15 16 18 18 19 22 23 24 30 24 23 22 24 22 27 32 29 22 29 29 26 21 20 18 16 13 15 14 12 10 10 11 9 10 12 12 13 15 14 15 16 17 18 20 20 19 19 19 19 19 19 20 20 22 21 19 17 19 18 18 19 19 20 18 18 18 19 19 20 18 19 19 17 17 18 19 20 20 20 22 23 25 24 21 21 25 25 23 19 20 22
20 15 19 18 18 19 17 21 19 19 21 18 20 21 20 22 17 21 16 22 23 26 26 27 20 28 27 21 20 19 17 14 14 13 13 13 11 9 9 9 11 11 12 13 14 15 16 17 18 20 20 19 20 21 19 18 17 18 20 19 20 19 19 20 20 17 18 19 17 18 18 18 20 19 20 20 18 18 16 17 17 18 19 20 21 21 22 24 24 23 23 24 26 23 24 24 23
15 16 18 19 21 30 23 15 20 20 19 20 24 25 23 18 18 19 17 14 16 22 21 23 19 21 22 21 20 19 17 16 16 13 14 12 11 9 9 8 9 10 12 12 13 14 15 17 17 19 19 19 22 21 19 18 16 17 18 18 18 19 20 19 19 19 20 18 16 16 19 16 17 18 17 17 18 19 19 19 19 17 18 19 20 21 22 22 21 24 23 23 24 24 25 23 24
16 21 22 18 23 25 15 16 21 14 20 28 20 26 26 23 22 16 15 16 18 20 21 21 22 21 21 20 20 19 18 18 15 14 13 13 12 10 10 8 9 10 11 12 12 14 14 16 17 19 19 19 22 20 19 18 16 15 16 16 17 19 20 19 20 19 20 19 19 18 16 16 18 18 17 16 16 18 19 17 18 17 18 20 19 20 21 20 21 23 24 23 24 22 22 22 22
20 18 15 17 13 17 19 18 13 16 20 19 18 21 22 22 16 18 16 16 20 22 21 22 21 21 21 21 20 20 18 16 15 13 13 12 12 11 10 10 9 9 11 12 12 13 13 15 16 18 18 20 21 19 19 18 17 15 15 16 17 18 20 20 20 20 20 20 18 18 20 19 18 18 19 18 19 19 16 17 18 18 18 20 17 18 20 21 20 20 19 23 22 21 21 22 22
22 20 20 18 15 15 19 16 18 18 19 23 19 19 24 22 20 22 20 20 20 22 22 23 24 23 22 20 19 18 17 16 15 15 15 15 14 13 12 9 11 9 10 12 12 15 14 14 15 16 17 18 19 19 18 18 18 17 17 18 18 19 18 18 19 20 19 19 20 20 20 20 20 19 18 18 18 20 18 17 16 18 19 22 24 20 23 20 20 20 20 20 20 19 23 22 19
20 19 23 17 20 19 16 14 20 21 20 17 20 18 18 21 17 25 25 20 20 21 22 23 24 23 22 21 21 20 18 16 16 15 15 15 13 11 9 9 12 10 11 12 11 15 15 15 15 15 15 17 18 19 18 18 20 19 19 19 19 20 20 19 18 19 19 19 20 21 21 18 19 19 20 18 19 20 21 21 21 23 20 22 23 21 22 20 20 21 24 23 20 21 23 23 22
20 21 22 17 21 14 20 21 22 20 21 20 21 22 16 15 22 22 22 20 16 19 22 22 22 22 21 19 19 18 18 17 15 15 14 14 13 12 11 11 12 10 11 12 13 15 15 16 15 15 15 16 18 18 17 18 18 18 18 19 19 18 18 19 18 18 18 19 19 19 20 20 20 20 19 21 20 22 22 23 23 21 20 22 22 21 19 18 18 20 21 20 24 24 23 21 19
17 19 20 16 17 17 15 20 17 21 24 21 19 23 18 13 12 14 14 12 11 16 19 21 20 21 20 19 17 17 16 16 15 13 13 13 13 12 12 12 11 11 12 12 15 15 15 15 17 15 15 17 18 19 19 18 17 18 18 18 19 19 19 19 19 17 17 19 18 19 18 19 20 18 17 19 21 21 22 22 23 23 20 22 23 21 19 18 20 20 20 21 21 19 19 20 18
Wind_Speed
9 9 8 8 8 8 7 6 7 4 6 9 10 8 9 10 10 6 7 7 9 4 4 9 9 9 4 5 5 12 10 8 5 3 4 4 7 8 5 9 12 13 12 12 11 11 12 12 13 14 14 14 14 14 15 15 14 12 12 13 14 15 15 15 14 14 13 12 13 13 13 12 12 12 12 12 12 11 11 11 12 12 12 13 13 13 13 14 15 14 15 15 15 15 14 13 12
9 9 9 9 8 6 7 7 7 8 7 10 12 6 14 13 7 8 9 10 7 11 6 5 8 11 3 6 3 11 13 8 8 7 8 9 10 7 9 6 9 12 11 12 12 11 11 13 13 13 14 14 13 13 13 13 13 12 12 12 13 14 15 15 15 14 12 12 12 12 12 12 12 12 11 11 11 11 11 11 11 11 12 12 12 12 13 13 14 15 15 15 14 14 14 13 12
9 10 10 9 8 8 8 7 10 8 9 11 10 9 9 11 13 8 7 7 9 8 9 8 10 9 15 6 12 7 7 8 10 10 8 9 9 8 10 4 7 8 12 10 10 11 10 13 13 13 12 14 13 12 11 12 12 12 11 11 12 14 15 15 14 13 12 12 12 12 12 12 11 11 11 11 11 11 11 11 11 11 11 11 11 12 12 13 14 14 15 14 14 14 13 13 11
9 9 9 8 8 7 8 7 9 11 10 10 10 9 11 8 9 9 4 9 3 7 8 9 8 9 10 8 5 9 7 6 8 10 7 6 8 14 14 16 15 11 11 9 10 10 10 13 14 13 13 14 14 12 11 11 11 12 12 12 12 12 14 15 14 13 12 12 11 11 11 11 11 11 11 11 11 11 11 11 11 10 10 10 11 10 12 13 13 14 14 13 13 13 13 12 10
9 9 9 9 7 7 7 8 10 9 11 8 10 8 9 11 12 8 8 10 6 8 12 8 9 3 10 11 8 2 8 12 9 11 7 7 13 12 12 10 7 7 12 11 11 11 13 16 14 13 13 14 13 13 12 12 12 11 12 12 12 12 13 14 14 13 12 11 11 10 10 11 11 11 11 11 11 11 10 10 10 9 9 10 9 10 12 13 13 13 13 13 13 12 12 10 9
10 9 9 8 7 7 8 8 8 9 10 9 10 10 7 10 8 5 11 11 8 6 4 9 11 11 4 9 4 7 11 5 8 10 6 5 10 12 11 7 5 4 12 10 11 11 14 17 15 14 12 13 13 13 12 12 12 12 11 11 11 11 12 14 14 13 12 11 10 10 10 10 10 10 10 11 11 11 10 10 9 8 8 9 10 11 11 12 13 13 13 12 12 11 11 9 7
7 8 8 8 9 7 9 10 11 10 10 10 10 11 7 9 11 12 5 9 9 11 8 9 6 9 8 6 12 11 12 9 8 11 11 8 9 9 11 9 6 4 9 9 11 14 18 18 16 15 14 13 14 13 13 13 13 12 12 11 11 11 12 13 13 12 11 10 10 10 10 9 9 10 10 10 11 10 10 9 8 8 9 9 10 11 11 12 13 13 12 12 11 11 10 8 6
9 8 6 9 8 8 11 11 12 10 12 13 9 11 9 9 10 7 7 6 9 9 8 9 12 7 4 9 10 7 8 6 12 14 13 10 7 8 9 7 5 4 10 12 11 16 20 19 17 15 15 15 15 14 14 13 13 13 13 12 12 11 11 12 12 12 11 11 9 9 9 8 9 9 10 10 10 10 9 9 8 9 9 10 10 11 11 12 12 12 12 11 10 10 10 7 6
9 8 6 10 11 8 10 11 12 12 12 13 11 9 12 13 15 11 12 11 12 11 14 12 8 5 8 12 11 9 9 9 10 14 13 11 8 7 5 6 4 5 14 11 14 16 16 19 17 16 15 16 15 15 14 14 13 12 12 12 12 12 11 11 11 11 11 10 9 8 8 8 8 8 9 10 10 10 9 8 9 9 9 10 10 10 11 11 11 11 11 10 10 9 9 7 5
8 7 7 8 7 10 10 10 11 9 11 10 13 11 3 1 4 6 9 10 11 11 11 11 5 7 6 17 11 13 10 9 9 9 8 8 8 6 6 7 15 18 11 10 12 14 12 21 19 16 14 15 15 14 14 13 13 12 12 11 12 12 11 11 10 10 10 9 9 8 7 7 8 7 8 9 9 9 9 8 9 9 10 9 10 10 10 11 10 10 10 10 10 9 8 6 4
9 7 8 9 10 11 10 9 11 8 10 9 10 8 11 9 7 7 8 11 10 11 11 14 4 8 15 17 17 14 21 15 11 19 20 12 7 11 15 12 13 16 14 12 14 11 12 13 20 17 15 15 14 13 13 13 13 12 12 11 11 11 11 11 10 9 9 8 8 8 7 7 7 7 7 8 8 9 8 8 8 9 9 9 9 9 9 10 10 10 10 9 9 8 7 5 2
9 9 8 9 9 9 10 9 10 8 11 8 7 8 6 9 3 7 10 10 10 5 19 20 14 18 19 6 11 12 17 22 19 15 18 23 17 18 17 13 13 13 15 18 14 9 11 12 11 15 16 15 14 13 12 12 13 12 12 11 11 11 10 10 9 8 7 7 7 7 7 6 6 6 6 7 8 7 8 8 8 8 8 8 8 8 8 9 9 9 9 9 9 8 6 5 2
10 8 10 10 9 9 10 12 10 10 10 10 8 7 11 9 6 8 10 5 22 22 19 18 15 20 9 8 3 9 16 18 17 17 22 17 18 17 14 13 11 13 14 17 15 12 11 10 10 10 12 16 15 14 13 12 12 12 11 12 11 10 10 10 10 9 8 5 6 4 6 6 5 6 5 5 7 7 8 7 8 8 8 7 7 7 8 8 8 9 9 8 8 7 5 3 2
9 8 8 10 10 11 10 10 11 9 7 8 11 3 1 2 5 8 11 11 19 16 14 17 14 15 16 6 7 7 8 13 14 19 20 17 14 11 13 13 11 13 13 15 13 10 8 8 8 8 9 9 9 11 12 12 12 12 11 11 11 11 10 10 10 8 7 10 2 7 2 4 4 4 4 4 1 6 7 6 7 7 7 7 6 7 7 7 7 8 8 8 8 7 4 2 1
10 8 8 9 10 10 9 9 10 7 9 12 2 8 4 4 7 8 9 6 17 15 11 21 9 10 3 8 6 7 6 7 14 13 18 12 15 11 11 10 15 15 15 15 12 9 6 5 5 5 6 7 7 5 5 8 11 10 10 11 11 11 10 10 9 9 10 9 7 4 11 9 12 12 7 6 6 8 4 6 6 7 7 6 5 5 6 6 7 7 8 8 7 6 4 1 2
9 8 8 9 10 11 8 11 11 10 10 4 8 5 2 4 4 3 13 13 12 17 20 11 18 10 12 16 8 5 5 9 9 12 19 13 14 5 6 14 14 14 14 13 10 7 6 6 6 5 4 3 5 6 7 7 9 10 10 10 10 10 10 10 9 9 9 10 9 13 5 6 7 3 3 5 5 5 4 2 4 6 6 5 5 4 5 5 6 7 7 7 8 6 4 3 3
8 7 9 9 11 11 9 9 8 9 11 1 5 3 5 8 10 2 9 16 20 17 20 17 14 14 16 11 7 7 6 6 11 10 13 10 5 3 8 8 10 12 11 10 8 7 8 8 7 5 5 5 3 4 6 6 7 10 8 9 10 9 10 10 10 9 8 8 9 9 7 4 5 1 2 3 2 1 3 4 5 7 5 5 4 5 4 5 5 6 7 7 8 7 6 5 5
8 9 9 11 10 12 9 13 7 8 15 4 6 0 1 8 8 10 8 20 20 18 18 15 19 18 15 11 7 5 2 4 4 14 14 12 6 6 11 11 13 12 10 6 7 8 8 8 9 8 6 7 6 5 2 3 5 6 5 5 4 4 5 7 6 5 7 5 11 7 6 5 5 2 2 1 1 2 5 4 4 7 6 5 4 5 5 5 6 6 7 7 8 8 9 4 4
10 8 9 11 10 11 12 12 8 11 9 7 6 7 3 7 9 12 13 15 16 17 14 12 18 16 13 10 7 8 9 13 11 11 14 14 9 12 10 13 12 9 6 4 6 7 5 6 6 6 7 7 9 8 6 4 3 3 5 5 4 5 4 4 2 2 4 4 5 5 6 4 7 5 4 6 5 2 2 5 8 5 6 6 5 5 5 6 6 7 7 8 8 9 6 4 4
11 10 9 10 13 15 14 12 9 2 10 6 7 3 3 11 9 16 11 15 17 15 9 10 14 15 14 11 10 12 14 14 13 11 12 6 17 13 10 9 12 11 6 4 5 2 3 4 5 5 6 6 7 7 6 6 7 6 5 3 1 2 2 2 2 2 3 4 4 5 3 5 7 5 6 8 6 4 5 4 5 6 6 6 6 5 5 6 8 9 9 10 9 6 6 5 4
8 10 10 10 13 13 13 9 4 4 3 8 2 4 4 9 12 11 10 13 14 9 6 8 12 13 12 12 11 10 12 13 13 12 12 11 14 12 10 8 5 9 10 9 5 2 2 4 5 4 4 5 3 4 5 5 5 5 4 3 2 3 2 2 3 4 3 3 3 2 4 6 9 6 7 5 5 2 7 2 4 5 5 6 9 5 5 6 6 6 6 7 5 6 7 5 6
7 11 12 16 13 13 19 10 1 7 4 11 5 4 2 17 17 15 14 12 7 4 6 10 11 12 13 13 13 12 14 16 14 11 11 11 14 14 11 9 7 4 6 9 8 6 5 5 5 3 2 3 5 4 4 2 2 1 1 2 2 2 2 2 1 2 2 3 4 3 4 3 3 9 8 5 7 9 8 4 5 5 5 5 8 6 6 6 6 6 6 6 6 6 6 6 6
10 10 12 14 10 13 9 6 5 5 2 3 2 6 7 16 14 14 16 13 8 7 10 12 12 12 11 11 11 14 14 15 15 13 10 12 13 13 10 7 7 6 4 6 7 7 6 5 5 2 3 3 4 3 1 1 2 1 1 2 1 1 1 1 1 2 2 2 3 3 1 2 2 3 9 9 9 8 8 6 7 5 4 3 5 6 1 2 5 5 5 6 6 6 7 6 5
9 10 9 11 5 12 8 5 11 6 2 8 6 4 8 17 16 13 15 14 10 10 10 13 14 14 11 10 13 15 15 15 14 11 11 11 11 11 10 9 8 4 4 5 6 7 7 8 7 5 4 4 4 3 2 2 2 2 1 1 1 1 1 0 1 0 1 2 3 4 4 3 2 3 3 6 10 9 6 8 8 5 5 4 5 5 3 4 5 4 4 5 6 7 6 5 4
9 11 12 6 7 11 3 11 2 4 4 4 7 3 11 16 15 13 15 11 11 11 12 12 12 12 12 13 14 13 15 14 10 5 5 7 10 11 10 8 7 7 7 5 6 7 6 5 6 6 5 4 5 7 8 7 7 4 1 2 0 1 1 1 1 1 3 3 2 2 2 4 3 2 3 3 1 4 9 9 7 8 6 7 6 5 6 6 5 2 3 4 4 3 2 4 3
7 15 10 6 4 15 3 3 4 4 2 1 6 9 7 23 21 16 12 12 11 12 12 12 12 13 13 14 15 10 14 14 10 5 5 5 7 10 8 6 4 6 5 5 6 6 4 5 6 6 5 6 6 5 4 3 2 9 6 2 2 2 2 2 3 3 3 2 1 1 2 2 3 2 3 2 4 3 3 3 8 7 8 6 7 6 6 6 5 5 5 4 4 2 1 3 5
10 14 10 5 9 7 9 2 4 5 8 7 2 5 5 5 8 8 11 14 13 13 11 9 10 12 11 10 11 6 13 14 11 7 6 7 9 6 7 6 5 5 4 6 6 5 5 4 4 4 7 6 5 2 0 2 3 5 9 2 2 3 3 3 3 3 3 2 1 2 2 2 2 2 2 3 1 2 2 4 4 4 7 6 7 7 4 5 4 5 6 5 6 6 5 9 9
9 12 5 10 5 2 5 7 7 6 5 8 1 5 1 7 14 10 10 11 12 13 10 9 10 8 8 9 8 5 10 14 15 10 9 8 7 6 6 6 8 8 7 8 7 6 6 6 4 3 3 3 5 5 3 1 5 8 8 4 3 3 3 3 3 3 3 3 3 3 2 2 2 3 3 3 3 2 3 3 4 6 3 6 7 6 6 6 6 6 7 7 8 5 8 6 6
9 6 6 3 4 7 7 13 6 6 6 3 2 5 3 8 11 13 9 9 12 12 11 10 9 7 7 7 8 11 12 14 13 12 10 8 6 6 8 6 6 7 6 7 7 7 8 6 5 8 4 2 2 2 2 4 7 9 5 4 3 3 3 3 3 3 3 2 3 4 3 3 2 3 3 4 3 3 2 2 3 5 5 4 4 8 8 8 7 7 5 5 3 4 4 4 4
9 3 5 6 5 5 9 7 8 12 7 10 8 8 7 8 14 17 10 8 10 12 9 7 5 5 4 6 10 12 12 12 13 12 10 9 9 8 8 6 7 6 5 5 6 7 4 4 4 5 5 6 7 8 7 8 10 7 7 5 4 5 4 3 3 3 3 3 3 4 3 4 4 4 4 4 3 3 3 3 3 4 4 5 4 2 2 2 3 3 3 4 4 4 4 4 5
4 5 7 6 7 8 7 3 10 7 9 3 5 7 4 8 10 19 12 10 6 7 8 7 6 5 4 6 9 12 11 12 12 11 11 9 7 7 7 6 6 6 5 5 6 6 6 4 3 2 2 2 1 0 3 3 2 2 3 2 2 2 3 4 3 3 3 3 4 3 5 5 6 5 4 5 3 3 3 4 4 3 3 4 4 3 3 2 3 3 3 3 4 4 4 4 5
8 3 7 7 7 5 9 2 5 11 10 6 3 8 4 6 7 10 18 13 10 5 4 5 5 3 10 10 10 11 12 12 11 11 10 9 7 8 7 7 6 5 6 5 4 5 5 4 3 3 2 1 1 1 1 1 2 2 3 2 2 3 3 3 3 4 4 4 4 4 5 5 5 6 6 4 5 4 3 4 4 3 3 3 4 4 2 2 2 3 4 3 3 4 5 6 5
7 5 5 7 4 4 6 7 7 9 4 4 7 4 4 7 6 5 14 20 15 8 1 2 1 3 6 8 9 11 13 13 13 13 12 9 8 7 6 6 5 5 5 4 4 3 5 4 4 3 3 2 2 2 1 3 4 2 2 3 3 2 2 3 3 4 4 4 4 4 5 6 7 7 6 6 5 5 4 4 5 4 3 3 4 4 3 2 2 3 4 4 3 4 5 7 5
6 8 7 4 7 7 6 4 4 0 10 2 6 5 8 5 2 6 4 9 22 15 13 9 3 3 6 6 10 11 11 11 11 11 11 9 9 8 6 7 6 5 5 4 4 4 3 4 3 3 2 2 2 2 2 4 2 2 3 4 4 2 3 2 3 3 3 4 4 4 4 5 6 6 7 6 6 5 5 5 5 5 5 4 4 4 4 3 3 4 4 4 4 4 4 4 5
4 3 3 2 12 5 8 4 8 9 9 11 5 9 7 6 2 4 4 6 6 13 15 13 12 9 9 10 9 11 10 11 11 11 11 11 11 9 7 7 5 5 4 4 4 4 4 3 3 3 3 3 3 4 4 4 5 5 4 5 4 3 4 4 4 3 3 4 4 5 5 4 5 6 7 7 6 5 6 6 5 5 5 5 4 5 3 3 3 4 6 5 4 5 4 5 6
11 1 0 2 11 8 1 1 7 7 6 9 13 2 0 3 2 3 4 5 5 7 9 12 16 14 10 9 10 10 10 12 11 11 10 8 8 9 8 8 5 4 4 4 5 4 4 3 3 3 3 3 4 5 5 4 5 5 5 6 6 5 6 5 3 2 3 4 4 3 3 3 4 4 6 6 6 5 4 4 6 5 4 4 4 4 4 4 6 6 6 7 5 5 6 6 5
2 3 6 7 4 3 6 8 4 3 8 8 1 5 3 3 5 3 6 6 4 5 9 7 8 8 8 9 9 10 10 12 12 13 12 11 9 8 7 8 8 7 5 5 5 5 5 4 3 4 2 3 3 4 4 4 4 4 4 5 5 5 6 5 6 5 5 4 1 2 4 2 3 4 5 5 5 5 4 7 6 4 4 4 5 6 5 6 5 4 4 3 5 5 5 5 6
6 6 6 6 8 7 5 6 6 12 8 10 9 7 4 6 7 7 7 8 8 7 8 7 8 7 9 9 9 10 10 10 12 12 13 13 11 10 7 6 7 8 6 5 5 5 5 5 4 3 3 3 4 4 5 5 4 4 5 4 5 5 5 5 6 6 6 4 2 2 2 3 4 4 4 5 4 4 6 6 6 5 5 5 5 5 6 6 5 4 2 5 4 6 4 5 5
9 7 10 10 10 11 12 11 2 8 8 4 4 4 6 7 8 8 8 8 7 8 7 8 8 10 8 9 9 9 10 10 10 11 11 10 11 11 8 6 6 7 7 6 5 5 5 4 4 3 3 3 4 4 4 5 5 4 4 4 5 5 5 6 6 6 7 7 5 3 4 4 4 5 5 5 5 5 6 7 6 5 6 6 5 6 4 5 3 4 0 2 7 8 7 5 5
10 8 11 9 11 11 6 8 7 9 4 4 8 7 4 5 7 8 7 8 8 8 9 7 7 7 8 11 12 10 11 10 10 10 10 9 9 8 8 7 6 6 6 6 5 5 4 4 4 4 3 3 3 4 4 4 5 5 4 5 6 5 6 6 8 8 8 8 8 7 5 5 5 5 5 6 5 5 5 5 6 6 6 5 5 5 5 4 4 5 2 4 4 2 7 7 6
10 11 9 7 7 6 7 6 10 10 11 7 6 6 5 6 7 7 8 10 8 7 5 7 6 7 6 8 9 9 11 11 11 11 10 10 9 8 7 7 6 6 6 6 5 4 3 4 4 4 3 4 3 4 4 3 4 4 4 5 5 5 5 6 7 5 4 4 4 3 3 3 3 4 4 5 6 5 6 6 6 6 5 6 5 6 6 5 6 7 6 5 7 7 9 7 7
5 3 4 3 7 10 13 10 10 7 8 9 8 6 4 6 10 9 8 8 8 7 7 7 5 8 9 8 9 8 8 9 10 10 11 10 10 9 8 8 7 6 6 5 4 4 4 4 4 4 3 4 3 4 4 4 4 4 5 5 6 6 6 5 6 7 7 7 7 7 6 4 3 3 4 5 6 5 4 3 6 5 6 6 7 6 6 6 8 7 7 7 9 10 7 6 7
2 3 6 2 9 4 3 10 9 5 5 8 10 8 2 7 9 8 8 9 9 8 9 9 8 8 8 7 9 8 8 9 9 10 10 10 9 10 9 8 7 7 6 4 4 4 4 4 4 4 3 3 3 4 4 3 4 4 5 5 5 6 6 5 4 6 7 7 7 7 7 6 5 5 6 7 5 4 5 2 1 4 5 6 1 6 7 6 6 7 6 7 8 7 7 7 9
6 10 6 7 4 7 5 6 7 5 7 7 11 9 3 6 11 11 11 10 10 11 10 10 10 9 8 8 8 8 9 8 8 9 9 9 8 8 9 8 7 6 5 5 4 3 3 4 4 3 3 3 3 4 4 3 4 4 5 5 6 6 7 8 6 6 6 6 6 6 5 5 4 4 6 5 5 4 3 4 8 7 5 4 4 7 8 7 7 7 7 7 6 6 8 9 9
3 5 9 4 7 3 6 7 6 6 4 4 7 7 8 8 7 9 10 12 12 12 11 11 11 9 9 9 8 8 7 8 9 8 8 7 8 8 7 8 7 7 5 4 4 3 2 3 3 3 3 3 3 4 5 5 5 5 5 6 7 7 7 7 7 8 8 7 7 7 7 7 6 6 6 6 7 7 4 2 4 6 5 6 6 7 7 7 9 8 8 7 7 7 7 7 6
9 8 3 5 4 6 6 5 6 5 6 5 3 2 5 6 6 8 11 11 11 12 11 11 12 10 10 8 8 7 7 7 8 9 8 7 7 7 6 7 7 5 4 5 5 3 3 3 3 3 3 3 3 3 3 4 5 5 5 6 7 7 6 7 7 7 7 8 8 9 7 6 6 5 3 5 6 6 6 4 1 3 6 8 7 7 6 7 7 7 7 7 7 8 7 7 7
6 3 7 5 6 6 5 6 5 2 3 5 4 8 10 4 3 5 8 9 9 3 4 10 16 10 10 9 8 7 6 6 7 8 8 7 6 6 6 6 6 5 4 5 4 3 3 3 3 3 3 3 3 4 4 5 5 4 5 6 7 7 7 8 7 8 7 7 8 9 8 6 6 5 4 5 5 6 7 8 5 3 1 4 4 4 7 7 7 6 6 6 6 7 7 7 7
4 5 4 2 3 8 7 4 5 4 3 3 5 12 10 6 5 7 4 4 5 6 6 8 11 15 8 10 9 8 7 6 8 7 7 6 6 5 4 6 5 5 5 4 4 3 3 3 3 4 4 4 3 4 2 3 3 4 4 6 6 6 7 6 6 7 6 6 8 8 8 7 7 8 6 7 6 7 7 5 8 4 1 5 5 6 6 6 4 5 4 6 7 7 7 7 7
7 6 3 4 2 0 3 3 3 3 3 2 7 4 7 9 4 6 8 7 7 9 9 12 13 7 11 10 9 8 8 9 10 7 6 4 4 4 4 5 4 5 4 5 4 3 4 4 5 5 5 5 5 5 5 3 3 4 4 5 6 5 6 5 6 5 5 4 4 6 8 7 6 7 7 7 6 6 3 4 2 2 5 6 5 5 5 3 6 5 7 7 7 7 6 6 6
6 4 4 3 0 1 4 2 3 6 9 2 3 6 7 8 3 13 9 10 12 11 10 5 6 7 12 11 10 7 6 2 8 8 6 4 3 5 4 4 4 4 5 5 5 5 5 4 5 6 6 5 5 4 5 4 4 3 3 3 4 5 5 5 3 4 4 5 4 2 5 6 6 5 6 6 8 7 4 1 5 4 4 4 6 8 7 1 5 8 5 7 8 7 5 7 7
4 5 3 6 3 3 3 3 3 4 4 4 6 3 2 6 2 4 10 14 10 7 6 8 9 15 18 12 10 8 6 8 8 5 6 5 4 4 3 3 3 4 5 5 5 5 5 5 5 7 6 6 6 6 5 5 3 3 3 3 4 3 4 4 7 6 5 5 5 6 4 4 4 5 5 5 6 6 7 2 3 4 7 4 4 6 7 5 7 7 8 8 8 7 6 8 8
4 3 3 4 6 5 6 3 4 6 4 5 5 2 6 4 7 2 1 3 4 14 11 14 9 7 11 9 8 4 9 7 6 5 6 6 5 3 4 2 3 3 4 4 5 4 5 4 6 6 6 6 6 6 5 3 3 2 3 4 5 7 5 4 4 5 5 4 4 4 6 5 4 4 4 4 5 4 4 5 5 1 6 4 3 3 4 4 4 4 3 3 8 7 7 9 8
5 5 4 3 5 4 3 3 6 7 4 6 5 7 4 3 6 3 5 5 6 6 7 3 3 4 8 8 5 9 8 7 5 5 6 6 5 3 3 3 2 3 3 3 3 4 4 4 5 6 5 5 6 6 4 2 1 2 3 4 6 6 7 6 5 7 7 6 4 3 5 5 5 6 6 5 5 4 3 3 4 1 2 3 2 3 1 1 2 4 5 5 5 6 6 7 7
6 2 4 8 4 4 3 4 2 3 5 4 4 6 2 6 1 2 4 4 1 1 2 4 10 4 7 7 5 8 9 7 6 6 6 6 5 5 3 3 2 3 2 2 3 2 2 3 4 5 5 6 6 7 6 7 8 3 3 4 5 5 6 7 6 7 7 6 6 4 4 5 6 6 5 4 5 5 6 7 5 3 2 2 3 3 3 1 0 1 2 4 5 3 5 5 4
8 5 1 4 1 3 1 3 3 4 4 4 5 7 5 5 4 4 5 6 6 4 7 6 6 10 8 7 10 10 9 7 6 7 6 5 4 4 3 3 2 2 1 1 3 2 4 2 3 3 4 4 6 6 6 4 5 6 7 7 6 6 6 6 6 6 6 6 7 6 6 4 4 3 4 4 4 8 7 7 6 4 4 4 5 5 5 3 3 3 2 3 3 3 4 4 4
10 7 8 8 5 6 4 3 4 0 4 5 6 6 3 7 3 4 5 3 3 2 4 3 6 5 8 8 7 9 7 7 8 7 7 6 5 2 5 3 1 0 1 3 2 4 4 2 3 3 3 3 5 6 4 5 7 6 7 7 8 8 7 6 6 7 6 7 7 7 7 5 4 3 3 5 4 6 5 5 4 4 5 6 6 5 6 6 6 5 4 4 3 3 4 5 5
2 3 6 4 5 2 5 4 6 5 5 5 5 5 2 2 3 3 5 4 5 1 3 5 6 8 7 8 7 6 8 7 7 6 6 7 6 4 4 3 2 1 1 3 3 4 3 4 4 5 3 4 5 6 5 4 5 6 7 7 7 7 8 7 7 7 7 7 6 6 7 6 6 8 6 6 8 6 5 4 5 6 7 8 7 7 6 5 5 5 5 6 5 4 4 4 5
1 3 5 4 6 5 4 5 2 6 5 4 5 5 5 4 4 5 7 4 3 8 7 7 6 9 10 8 8 7 6 8 6 5 5 5 6 5 3 4 3 2 1 5 4 3 3 4 5 5 4 6 6 7 5 4 6 5 6 7 8 7 7 8 8 8 7 7 7 6 7 7 8 8 7 8 9 8 9 9 10 12 12 12 12 11 10 8 9 9 8 5 6 6 6 6 4
Wind_Direction
286 263 256 241 226 243 260 235 260 211 238 256 265 253 261 253 284 291 236 268 251 296 296 357 272 280 279 79 321 69 46 48 13 324 41 104 125 121 122 144 138 149 147 143 141 144 144 138 138 138 141 137 135 133 129 128 130 130 125 120 117 113 109 106 103 102 100 97 99 98 98 98 98 98 101 101 100 99 98 101 102 100 103 103 99 99 97 90 84 83 82 79 78 78 78 80 80
288 284 265 243 255 269 242 223 249 274 255 275 263 254 267 285 291 291 288 248 281 269 8 297 292 267 5 121 231 123 69 59 58 88 88 88 108 91 79 76 149 150 152 140 143 147 146 142 134 133 140 135 131 128 126 125 124 122 118 114 111 109 108 106 104 102 100 99 100 100 100 100 100 99 100 101 102 101 101 101 102 103 103 104 103 99 93 89 85 80 78 77 77 78 79 79 79
300 306 292 263 240 235 278 270 266 260 260 257 267 244 246 241 251 214 241 278 260 319 352 316 287 268 250 131 59 31 80 84 93 87 88 109 104 76 81 119 305 218 146 137 146 145 139 138 128 126 130 128 122 122 122 118 116 113 109 107 107 108 105 102 100 100 98 98 97 101 103 104 103 103 105 107 105 102 103 104 104 105 105 104 106 99 93 87 84 81 79 79 78 79 79 77 78
288 276 279 286 273 225 243 251 250 257 260 261 270 269 260 250 234 252 268 254 251 295 282 279 279 34 316 108 121 97 117 106 82 95 108 118 110 142 166 176 177 221 133 149 153 139 128 128 124 123 120 120 118 116 114 109 106 104 105 102 103 101 103 101 98 94 93 95 97 99 104 107 108 110 108 108 106 106 106 105 106 108 107 103 94 92 90 87 85 82 82 81 80 80 79 78 78
275 272 261 272 283 271 257 247 264 261 255 264 264 272 264 257 265 247 256 264 221 232 236 247 257 360 66 73 125 228 109 108 103 103 115 114 139 155 170 172 169 188 145 157 149 126 123 122 113 113 117 117 115 112 109 105 102 100 99 102 102 101 96 96 97 96 93 94 97 99 106 111 112 110 109 109 109 109 108 106 107 107 103 97 97 93 90 89 87 86 84 82 83 82 83 82 82
255 261 253 249 258 318 296 277 266 261 270 268 272 269 308 334 319 359 262 278 19 308 3 297 293 298 95 69 58 105 136 132 114 98 140 227 163 159 152 151 191 183 153 156 132 115 127 119 111 109 110 114 113 110 107 104 98 99 97 95 93 89 91 95 94 94 95 97 101 104 107 112 110 110 109 110 112 113 110 108 105 101 102 97 92 96 94 93 91 88 85 83 84 87 89 89 88
261 258 243 227 241 245 264 269 269 270 259 261 277 284 269 243 238 239 283 319 248 272 290 276 280 244 120 93 71 67 91 125 130 132 155 203 173 147 144 157 179 202 152 144 116 116 124 112 106 106 108 110 110 107 106 105 102 99 101 99 92 89 91 91 90 92 95 99 102 109 111 113 115 116 114 114 114 113 110 106 105 104 97 96 99 98 98 96 93 90 86 85 86 90 92 94 88
252 271 286 259 248 208 229 244 254 262 262 257 265 270 274 272 265 338 316 267 274 277 293 267 215 273 85 163 97 87 94 85 108 122 149 163 164 143 144 136 176 203 158 101 95 109 112 104 105 106 109 111 110 105 103 102 100 97 94 95 93 91 87 88 90 94 97 98 104 109 114 114 119 120 120 119 115 112 114 112 103 94 96 97 98 98 98 96 94 93 91 91 91 91 93 93 92
251 242 250 275 270 263 255 251 255 235 252 257 230 239 266 278 290 298 279 286 293 274 271 281 335 310 137 109 87 70 62 84 96 123 140 144 135 128 127 151 168 41 39 56 95 108 103 102 102 106 110 111 107 104 101 99 94 94 94 94 93 91 89 84 86 89 93 98 101 106 113 114 118 123 123 121 118 114 112 102 98 99 98 99 99 98 94 98 98 98 98 98 97 93 91 89 91
253 237 239 246 264 267 270 264 253 256 265 249 254 266 266 78 313 313 303 300 307 307 280 283 302 258 306 81 81 37 29 65 87 108 92 100 94 123 147 59 31 67 53 61 85 95 99 102 99 98 99 101 103 103 103 99 96 92 90 89 90 89 90 89 85 85 89 96 100 104 107 115 118 123 126 125 123 119 113 107 104 103 105 102 101 99 99 101 103 102 101 100 99 97 92 87 75
255 215 247 264 250 257 255 262 257 263 264 274 274 230 262 273 271 272 279 277 282 289 301 344 249 313 54 52 49 12 350 13 42 34 14 21 64 58 29 33 53 67 70 46 78 86 96 100 99 97 97 94 93 94 96 98 97 93 91 90 90 92 88 87 88 84 84 91 98 109 117 120 126 126 128 129 127 123 116 110 107 110 111 106 106 106 108 104 105 105 101 100 99 99 95 96 85
272 264 223 231 252 263 269 269 287 274 270 275 292 320 270 273 293 277 279 268 257 270 32 29 16 27 64 64 27 339 352 13 15 15 10 15 19 49 47 47 83 99 109 105 95 101 108 106 104 102 99 98 94 94 94 96 97 96 95 93 93 93 92 90 89 85 82 88 102 108 118 117 120 126 131 133 136 131 123 117 114 116 114 114 115 114 113 111 109 109 107 102 100 97 99 102 85
255 264 263 256 247 244 263 276 274 288 296 272 280 40 45 38 322 292 264 317 32 42 25 17 38 61 48 55 122 352 11 360 16 29 40 34 38 47 62 57 30 74 88 99 115 124 115 116 119 116 113 109 107 104 99 96 98 97 97 97 97 95 95 92 85 78 65 68 57 99 121 126 131 129 127 141 141 140 133 120 120 123 121 123 120 118 116 117 114 112 112 109 102 99 100 104 111
245 249 266 269 268 263 259 273 272 264 250 266 249 180 196 326 284 335 354 40 34 47 48 22 29 80 63 120 50 37 359 346 13 47 52 52 47 34 60 74 37 58 46 60 53 43 53 86 102 111 117 111 108 103 104 104 103 104 104 101 99 100 100 99 98 99 95 86 74 62 350 87 102 105 70 73 159 134 140 127 126 125 126 124 122 121 120 118 122 117 116 113 110 106 101 111 136
247 251 264 268 270 275 264 263 266 256 266 256 283 122 117 217 287 337 304 30 56 30 52 36 6 57 31 67 29 29 34 7 23 49 69 49 49 22 57 67 70 52 56 58 60 54 30 25 46 86 99 106 111 112 109 105 104 107 108 106 108 106 102 103 110 119 127 129 137 93 63 58 35 35 28 13 2 18 343 125 127 125 127 126 125 124 124 126 127 125 121 121 119 115 116 145 258
248 252 252 260 255 255 254 246 249 277 268 285 78 85 102 328 94 293 36 58 72 54 53 41 37 81 86 78 83 78 113 93 55 50 70 53 64 332 32 71 76 66 60 59 54 53 46 32 21 16 28 83 133 136 130 130 126 127 128 131 128 129 127 124 128 131 133 138 142 106 123 102 111 141 195 181 191 157 204 138 141 123 126 132 132 134 135 138 136 132 131 131 129 130 148 198 263
234 252 251 245 256 255 255 261 275 248 259 251 69 10 314 291 79 333 64 71 64 58 65 54 71 73 74 80 76 63 46 95 123 120 97 92 112 214 79 54 72 74 66 57 48 23 36 35 30 25 5 357 11 111 130 136 144 141 139 143 141 142 141 146 145 143 141 144 123 128 100 102 71 164 182 340 75 78 39 291 163 135 136 138 144 152 151 152 147 145 145 142 143 148 181 198 226
236 223 238 250 262 257 254 252 239 267 275 193 89 43 273 292 175 96 125 75 79 67 69 84 83 79 82 93 86 82 104 31 88 103 102 98 119 117 90 70 56 64 62 48 54 35 25 24 19 19 2 5 359 352 79 115 134 150 138 131 133 141 152 152 159 161 148 127 115 139 127 132 127 47 308 50 294 180 146 229 208 147 145 152 163 164 171 162 162 162 165 158 160 176 187 200 216
235 232 234 245 242 257 265 262 246 254 253 13 18 70 326 14 355 50 56 50 55 63 64 74 87 86 87 88 95 102 102 80 57 73 95 119 118 86 89 105 94 83 72 58 55 46 36 29 26 24 26 15 12 3 6 10 141 177 145 152 145 177 169 174 189 165 118 118 92 116 141 139 116 140 80 357 284 313 282 172 224 168 160 158 176 183 175 184 174 181 185 177 176 191 201 220 214
218 258 234 235 254 267 268 274 274 49 312 332 74 89 291 46 349 69 63 69 61 52 54 66 68 74 79 75 73 81 83 82 79 77 77 91 103 95 69 83 116 113 106 82 74 85 71 56 42 32 31 25 31 12 17 12 8 19 6 53 51 155 140 185 155 81 32 55 108 126 130 133 129 128 133 196 257 28 293 207 220 194 177 175 180 187 192 188 193 193 194 191 195 198 223 239 212
188 223 251 253 225 242 257 265 254 0 1 340 271 125 286 84 49 66 95 76 64 73 61 53 71 78 81 86 83 77 77 76 71 72 82 78 75 79 84 78 63 111 131 124 101 88 88 72 65 34 11 12 38 53 37 14 4 8 19 27 29 27 18 45 32 43 50 44 33 331 159 159 134 144 153 165 102 352 280 206 199 196 197 188 187 208 187 189 188 201 206 201 209 216 221 227 256
251 223 236 256 281 300 283 217 324 261 163 312 58 92 200 66 54 53 62 76 75 71 58 63 76 84 84 88 88 79 69 68 68 73 72 72 83 87 89 87 82 66 116 119 129 131 128 113 96 103 61 60 34 14 32 13 13 345 20 31 9 25 19 80 82 73 51 40 6 27 345 324 152 145 150 165 147 186 222 207 222 203 199 209 181 226 200 185 184 207 208 196 212 228 235 229 232
237 234 241 244 262 281 9 46 217 49 143 287 276 39 52 91 75 71 71 85 106 104 90 88 90 89 76 83 88 78 64 59 57 49 55 63 74 85 90 94 99 93 77 107 120 116 108 107 106 97 81 86 71 56 51 337 343 353 12 3 18 59 355 9 60 112 149 158 141 141 147 303 280 170 153 170 178 184 203 199 204 201 205 200 201 205 227 253 204 200 206 211 199 223 236 238 240
233 251 215 238 275 271 347 301 83 165 356 266 25 14 23 66 75 76 79 85 87 85 81 79 73 81 96 85 74 71 68 59 43 25 34 56 67 79 85 85 93 96 74 84 102 116 112 109 109 92 58 25 31 39 35 355 344 315 341 22 23 56 325 311 59 321 238 193 182 168 148 143 248 262 194 168 173 182 193 197 191 184 198 196 204 186 178 236 259 192 191 230 221 217 236 249 260
213 244 259 267 198 248 316 58 260 115 244 299 34 335 70 89 102 88 82 84 93 81 74 80 81 78 76 77 87 97 92 85 71 54 54 46 69 80 81 82 83 86 86 78 83 79 65 74 91 92 97 88 60 18 12 17 337 314 284 239 159 163 202 61 63 200 232 214 228 172 162 164 189 229 219 182 245 202 182 189 181 184 191 195 190 175 194 212 223 156 201 231 232 223 176 252 271
236 249 242 228 198 246 69 264 66 197 210 235 195 73 86 104 83 81 97 99 90 94 79 74 71 67 69 62 65 68 101 106 113 92 86 85 84 82 80 82 91 92 98 91 74 81 83 80 79 71 62 56 47 35 34 28 351 309 266 197 167 207 193 176 203 227 223 223 178 225 181 201 211 215 249 216 186 215 269 213 181 184 189 180 181 190 205 202 203 193 205 215 235 240 138 325 255
211 234 241 7 252 232 95 211 176 133 228 99 184 103 67 45 88 91 103 98 94 85 79 67 73 74 69 70 93 113 115 128 125 145 120 95 69 86 115 119 104 101 114 101 95 113 152 136 81 104 106 100 76 23 79 265 250 244 275 204 193 202 179 194 203 221 215 222 152 214 219 233 232 229 240 272 249 173 238 282 279 203 188 183 179 199 209 220 219 195 188 200 216 193 196 194 211
292 242 173 202 219 82 89 250 166 202 145 216 238 120 143 97 98 101 105 108 95 83 76 70 66 69 68 63 66 102 94 93 104 104 93 81 83 83 85 82 83 81 75 71 80 95 53 40 96 120 59 71 107 150 189 227 250 251 250 230 195 190 180 207 214 204 204 191 180 205 224 254 265 257 266 279 282 250 213 256 283 291 238 177 184 191 190 206 212 224 198 210 215 153 207 189 211
281 277 174 308 6 230 210 219 144 244 127 302 153 118 83 49 102 121 93 93 87 82 75 68 55 56 70 70 72 77 81 91 90 91 95 111 108 95 95 89 101 96 79 79 80 82 100 100 20 352 10 68 106 359 326 239 244 237 236 224 215 191 196 211 227 224 206 189 179 186 203 230 239 249 250 255 269 281 277 255 258 282 294 281 203 193 198 189 203 214 214 227 199 197 218 199 212
294 342 240 196 219 211 210 188 177 219 135 210 157 233 94 87 92 127 134 116 104 94 86 81 76 51 77 80 84 81 77 85 92 91 82 64 62 58 62 63 67 76 85 82 82 82 89 104 123 155 181 191 196 183 200 237 240 223 201 207 183 184 194 217 238 237 224 191 191 204 201 227 223 226 239 249 252 265 273 266 258 257 283 305 301 219 224 266 212 216 227 213 229 214 224 202 214
258 293 250 229 218 189 103 282 109 243 74 47 32 261 143 82 95 128 116 106 95 93 109 102 89 99 102 74 81 85 83 84 93 100 97 100 90 83 72 63 61 67 79 73 70 72 69 66 84 102 76 64 71 164 181 201 229 298 283 187 186 194 191 201 202 221 236 214 218 199 196 205 234 230 234 240 237 241 253 262 257 257 262 276 302 276 196 238 274 266 256 231 219 204 239 232 209
227 246 269 207 240 133 151 331 138 244 128 222 276 261 88 103 80 107 129 117 101 73 67 101 123 142 129 127 115 113 109 106 102 102 104 103 106 90 84 69 57 58 69 77 83 82 81 64 54 61 20 43 82 343 301 299 320 288 281 260 233 177 219 233 192 202 211 225 213 216 191 205 220 236 239 234 234 231 238 251 251 259 258 265 281 300 261 203 262 253 267 267 264 227 209 240 201
234 197 236 301 243 119 189 175 224 265 151 140 239 47 240 149 105 92 125 131 126 124 177 90 45 99 110 125 122 127 131 125 117 112 109 107 97 105 94 89 76 70 55 60 72 78 80 69 49 37 18 14 357 326 322 284 199 224 293 330 306 306 273 237 219 197 205 220 222 219 195 199 213 223 231 233 237 233 233 243 252 245 242 247 256 262 254 211 241 261 242 269 263 267 250 242 220
266 183 198 305 220 132 253 170 287 324 307 185 193 281 64 47 123 114 168 147 137 153 162 150 114 306 167 150 135 125 117 112 109 112 115 111 108 105 104 103 99 90 78 67 67 69 68 74 58 20 20 347 356 323 334 299 295 268 227 203 227 260 253 235 249 257 234 206 203 213 218 206 208 226 226 231 231 230 238 237 239 236 235 232 240 240 236 227 216 244 256 240 259 274 274 279 274
277 192 214 351 316 197 225 250 176 257 191 267 203 232 72 64 105 183 165 191 164 143 149 154 160 203 210 155 139 128 122 118 116 117 117 119 119 114 108 98 90 83 79 75 72 74 69 74 74 44 3 1 356 344 353 329 0 348 353 2 329 231 221 242 247 258 278 271 220 201 215 215 193 215 222 225 231 227 232 241 237 237 235 237 234 243 233 230 234 237 246 235 228 250 261 274 284
205 283 10 101 293 186 146 234 138 212 247 210 269 199 177 168 191 188 206 182 179 130 133 154 162 168 174 142 133 128 122 115 116 115 111 109 109 113 114 107 92 90 87 90 77 74 74 57 72 55 19 12 12 4 356 6 2 341 9 344 328 338 328 318 291 251 236 238 245 249 197 208 207 224 235 218 216 224 255 255 251 238 242 246 245 247 241 221 226 239 244 248 235 227 241 260 270
229 212 177 220 275 292 283 246 180 161 247 258 208 207 171 220 255 197 191 172 150 153 146 160 142 152 139 123 121 123 126 127 128 125 121 116 111 102 101 112 109 98 95 86 89 83 66 54 56 56 11 45 24 16 358 15 358 340 357 321 312 325 321 309 298 276 251 258 335 328 290 257 240 230 231 238 211 183 214 250 250 249 240 228 236 234 238 248 243 242 253 244 251 248 234 233 252
152 172 189 197 211 229 205 283 242 163 202 196 217 164 185 217 230 214 193 174 171 184 171 165 182 165 129 140 146 132 124 125 127 124 122 121 119 117 111 104 108 102 89 85 78 72 66 57 43 48 27 40 44 23 355 15 350 346 328 318 322 306 304 313 317 315 315 330 339 300 266 259 255 251 241 240 243 205 195 232 239 229 233 229 231 233 231 239 250 260 327 290 248 250 259 238 240
179 170 193 204 206 217 170 231 209 269 218 240 235 170 183 218 215 203 206 185 190 193 181 193 194 146 168 153 133 141 137 127 117 109 104 102 105 108 109 104 100 100 95 82 76 69 59 49 35 28 41 33 51 32 4 0 330 331 319 310 310 310 296 285 284 296 311 312 303 284 275 268 257 242 238 234 235 232 208 216 229 230 232 230 221 224 231 238 239 265 246 291 329 323 302 276 262
178 189 197 214 205 199 158 219 202 239 268 213 190 266 259 215 200 205 207 206 195 201 196 199 178 166 192 157 154 149 140 129 118 111 104 99 98 99 103 102 98 92 89 80 68 67 59 45 32 18 24 40 41 45 11 343 330 324 312 318 307 299 303 292 274 270 272 269 263 256 244 243 250 257 267 262 254 236 224 209 223 224 228 229 231 227 214 224 241 244 186 137 159 202 264 270 246
193 205 214 228 193 158 226 179 208 192 202 262 155 218 251 200 202 209 197 217 197 191 198 184 187 145 93 111 138 143 133 134 131 125 121 116 108 100 97 99 94 86 78 71 65 57 53 46 35 11 13 26 20 39 359 335 331 319 329 317 318 316 317 318 318 299 279 275 282 270 281 288 298 299 286 278 268 253 222 217 204 215 216 229 229 229 224 222 228 225 201 192 190 201 232 251 263
119 27 315 233 139 214 205 155 205 179 206 194 199 206 206 237 221 208 191 209 200 185 201 200 185 127 126 125 117 122 127 122 126 123 119 119 115 110 101 93 86 81 79 75 65 59 54 51 38 18 13 7 17 18 348 350 332 327 325 333 326 325 316 322 314 319 324 325 324 325 316 301 300 289 274 265 260 260 270 183 212 219 207 217 222 219 223 210 216 218 211 198 206 214 211 239 267
325 146 248 299 208 194 167 156 209 194 231 174 198 240 159 317 245 202 203 202 205 190 203 215 203 167 162 163 147 152 141 135 125 119 115 110 109 107 100 94 90 89 85 89 78 61 57 57 43 24 13 354 14 1 336 359 325 329 341 323 311 308 307 296 303 312 308 304 304 299 293 284 271 275 277 274 271 251 244 119 176 223 224 228 152 260 238 216 214 219 204 203 214 215 209 234 242
359 292 199 308 201 161 182 215 198 223 218 217 202 226 208 194 224 217 216 207 211 211 202 223 225 180 181 170 171 156 154 145 127 115 109 105 100 96 98 98 96 98 104 100 97 77 61 54 43 23 17 346 32 337 335 346 338 341 326 328 321 316 318 314 300 274 269 273 280 284 289 291 283 270 269 280 282 278 254 171 187 202 223 228 191 225 227 225 216 222 214 211 213 212 213 223 235
173 252 276 212 265 216 198 227 228 232 232 359 237 215 248 235 193 197 211 223 213 217 212 208 225 192 182 173 173 156 155 139 126 117 110 104 98 96 96 99 99 100 99 100 94 87 77 66 47 12 34 352 28 342 346 347 346 343 346 347 333 328 319 318 321 323 323 322 310 301 293 288 287 284 287 285 278 269 268 226 195 168 205 230 223 221 220 218 224 220 213 213 214 221 228 238 244
166 230 294 279 231 256 232 229 221 235 267 251 261 338 282 283 313 181 203 228 226 221 218 213 221 208 190 177 158 163 130 121 114 112 110 108 104 103 103 101 99 104 93 91 91 80 72 74 33 31 36 13 5 355 344 346 359 347 9 354 330 320 322 320 318 322 323 330 318 307 297 296 288 281 284 293 299 304 296 276 212 149 199 229 229 233 227 230 237 240 230 221 222 227 230 238 241
333 335 258 219 240 242 233 246 250 200 243 263 264 274 257 262 310 223 213 215 233 184 9 353 319 248 198 170 160 165 151 151 131 122 113 115 110 106 103 92 93 92 91 79 86 68 78 54 40 28 33 26 14 345 8 355 6 350 19 342 333 330 331 331 333 334 337 328 331 323 312 301 295 293 288 282 298 314 329 336 331 329 304 258 265 237 236 235 232 236 243 239 231 234 240 237 239
323 235 238 268 353 326 260 248 236 245 250 278 230 246 206 242 187 229 210 267 238 175 204 190 226 281 226 151 172 174 165 174 135 133 128 120 120 104 94 87 79 76 73 68 70 77 60 47 36 22 25 17 18 322 31 15 24 349 13 344 334 339 334 333 332 332 342 333 325 328 332 335 341 338 344 351 358 0 12 347 330 330 238 249 260 277 266 260 282 272 271 254 244 233 235 238 235
229 242 219 231 111 316 300 211 284 293 316 66 310 312 248 236 202 187 233 217 236 223 226 194 196 208 289 173 172 179 161 200 143 128 126 136 115 111 88 79 76 73 61 58 51 55 48 36 28 15 14 18 358 327 355 43 16 6 357 348 330 333 335 340 344 314 338 307 316 327 331 342 340 338 337 334 342 335 44 347 19 342 316 292 263 261 278 318 275 258 244 243 244 244 235 231 236
243 243 240 243 177 238 275 299 204 187 230 88 15 339 281 309 219 165 189 200 209 219 225 235 153 183 223 206 176 172 180 269 95 118 129 131 124 104 86 72 65 61 51 41 35 35 36 21 21 11 8 9 349 338 11 16 18 5 345 350 321 327 330 337 311 315 327 336 334 326 312 325 325 316 319 327 326 340 350 48 342 335 298 332 319 306 299 317 313 298 289 282 270 263 267 257 248
290 292 317 111 321 307 288 283 288 268 308 336 92 105 248 262 52 182 175 190 203 193 188 246 214 201 219 173 170 184 147 112 111 145 150 138 121 117 104 83 57 66 40 43 24 25 26 11 14 9 359 5 339 344 13 20 3 348 3 348 317 335 319 354 331 344 343 334 345 348 294 289 302 326 323 325 328 325 342 46 114 337 342 347 352 330 316 299 266 259 286 297 295 272 270 268 269
281 293 310 202 156 189 256 323 295 300 306 285 170 216 193 186 206 224 292 267 212 164 200 212 166 207 169 159 159 167 136 138 150 155 141 126 122 124 120 92 76 63 48 40 26 28 9 16 6 4 353 358 337 345 13 8 5 328 12 339 342 354 335 348 339 327 329 348 354 345 317 325 329 329 324 314 326 302 339 349 66 31 281 304 258 272 270 289 288 277 259 280 287 330 326 310 298
51 296 225 308 126 234 239 255 265 305 266 260 248 239 178 103 178 174 234 248 237 183 175 121 152 194 156 146 149 152 148 149 180 160 139 137 142 129 120 91 73 81 54 29 22 31 353 18 4 353 352 356 338 333 349 332 52 359 10 2 348 350 350 354 352 334 343 341 334 333 328 342 333 351 345 343 338 350 343 336 92 238 245 270 248 243 279 297 196 244 269 260 257 240 244 267 267
286 291 355 331 192 249 271 285 307 242 263 272 275 300 177 209 190 276 219 195 305 96 55 179 127 110 216 130 164 169 156 159 189 164 148 152 146 137 124 136 114 106 56 19 27 12 21 38 6 343 354 358 336 321 20 6 358 15 18 9 360 351 352 351 353 352 344 336 350 359 333 358 353 10 343 325 327 355 5 5 11 13 2 3 17 6 12 22 339 235 253 271 264 249 234 231 236
268 252 95 262 282 236 104 325 263 290 287 312 295 298 312 40 75 210 180 226 210 203 178 187 147 161 179 164 193 167 163 166 196 164 157 150 145 161 149 101 330 102 143 108 25 338 31 14 7 340 13 350 328 326 20 359 33 7 3 4 1 349 357 352 353 350 347 348 352 358 357 357 355 342 312 337 352 12 15 8 27 8 18 34 45 28 5 15 10 350 6 309 297 277 279 272 259
224 283 276 239 249 244 256 217 294 235 274 287 291 326 333 96 156 176 99 81 43 223 247 237 157 157 159 173 185 192 175 170 183 182 169 161 152 169 137 136 291 192 69 47 21 32 343 37 2 355 25 347 335 333 20 26 12 14 9 0 354 348 355 355 351 353 352 359 356 1 355 357 342 343 343 4 358 35 12 15 353 23 21 37 43 38 21 11 1 5 2 335 333 7 345 321 305
310 273 282 285 246 297 292 288 263 267 289 284 304 299 351 101 102 127 126 141 150 214 251 267 157 189 167 181 178 188 195 166 168 184 173 164 154 155 148 157 257 88 276 160 58 9 352 27 360 350 24 357 360 343 12 23 52 19 1 5 352 350 352 353 2 357 358 0 1 2 4 7 5 11 17 3 35 19 27 34 4 29 28 22 21 22 26 13 1 360 357 2 357 7 10 6 351
162 167 268 294 27 8 309 268 241 278 278 315 314 313 338 17 69 95 108 125 160 173 208 202 196 174 181 166 180 188 185 154 161 184 165 151 154 154 200 179 194 222 84 56 36 344 21 21 358 346 32 9 3 341 357 21 45 39 9 5 357 356 4 351 13 350 2 4 6 1 23 23 24 30 18 34 40 39 30 30 30 31 24 16 11 11 8 6 7 356 356 358 344 357 15 14 17